Home   Weather   Oradea   Past weeks

Flag for Romania Past Weather in Oradea, Romania — Yesterday and Last 2 Weeks

59 °F


Feels Like: 58 °F
Forecast: 44 / 58 °F
Wind: 8 mph from South

Location: Oradea Airport

Current Time: Oct 25, 2016 at 4:38:42 AM

Latest Report: Oct 25, 2016 at 4:00 AM

Visibility: N/A

Pressure: 30.21 "Hg

Humidity: 68%

Dew Point: 48 °F

Location of OradeaLocation

Past Weather in Oradea — Graph


Oradea Temperature Yesterday

Maximum temperature yesterday: 66 °F (at 3:00 PM)
Minimum temperature yesterday: 45 °F (at 3:00 AM)
Average temperature yesterday: 56 °F

High & Low Weather Summary for the Past Weeks

High68 °F (Oct 15, 4:30 PM)100% (Oct 13, 12:00 AM)30.45 "Hg (Oct 13, 12:00 AM)
Low36 °F (Oct 10, 5:30 AM)42% (Oct 10, 3:30 PM)29.71 "Hg (Oct 12, 7:30 AM)
Average51 °F83%30.10 "Hg
* Reported Oct 10 3:00 AM — Oct 25 3:00 AM, Oradea, Weather by CustomWeather, © 2016

Note: Actual official high and low records may vary slightly from our data, if they occured in-between our weather recording intervals... More about our weather records


Oradea Weather History for the Previous 24 Hours

Scroll right to see more
Time TempWeatherWind HumidityBarometerVisibility
3:00 AM
Tue, Oct 25
59 °FOvercast.10 mph68%30.24 "HgN/A
2:00 AM59 °FPassing clouds.8 mph72%30.24 "HgN/A
1:00 AM57 °FPassing clouds.6 mph77%30.24 "HgN/A
12:00 AM57 °FPartly cloudy.7 mph82%30.24 "HgN/A
11:00 PM
Mon, Oct 24
59 °FOvercast.6 mph82%30.24 "HgN/A
10:30 PM59 °FClear.8 mph82%30.24 "Hg10 mi
10:00 PM61 °FClear.8 mph77%30.24 "Hg10 mi
9:30 PM61 °FClear.9 mph77%30.24 "Hg10 mi
9:00 PM61 °FClear.6 mph77%30.24 "Hg10 mi
8:30 PM61 °FClear.5 mph77%30.24 "Hg10 mi
8:00 PM61 °FClear.6 mph77%30.24 "Hg10 mi
7:30 PM61 °FClear.6 mph77%30.24 "Hg10 mi
7:00 PM61 °FClear.5 mph77%30.24 "Hg10 mi
6:30 PM63 °FClear.6 mph77%30.21 "Hg10 mi
6:00 PM63 °FSunny.6 mph77%30.24 "Hg10 mi
5:30 PM63 °FSunny.7 mph73%30.24 "Hg10 mi
5:00 PM64 °FSunny.10 mph68%30.21 "Hg10 mi
4:30 PM64 °FSunny.13 mph68%30.21 "Hg10 mi
4:00 PM66 °FSunny.14 mph64%30.21 "Hg10 mi
3:30 PM66 °FSunny.14 mph60%30.21 "Hg10 mi
3:00 PM66 °FSunny.14 mph60%30.24 "Hg10 mi
2:30 PM64 °FSunny.14 mph64%30.24 "Hg10 mi
2:00 PM64 °FSunny.13 mph60%30.24 "Hg10 mi
1:30 PM64 °FSunny.13 mph64%30.24 "Hg10 mi
1:00 PM64 °FSunny.13 mph60%30.24 "Hg10 mi
12:30 PM64 °FPassing clouds.12 mph60%30.24 "HgN/A
12:00 PM63 °FPassing clouds.5 mph64%30.24 "HgN/A
11:30 AM59 °FSunny.7 mph68%30.24 "Hg10 mi
11:00 AM54 °FSunny.7 mph82%30.24 "Hg10 mi
10:30 AM52 °FSunny.6 mph82%30.24 "Hg10 mi
10:00 AM50 °FSunny.7 mph88%30.24 "Hg10 mi
9:30 AM48 °FSunny.7 mph87%30.24 "Hg10 mi
9:00 AM46 °FSunny.6 mph87%30.24 "Hg10 mi
8:30 AM45 °FSunny.6 mph93%30.24 "Hg10 mi
8:00 AM45 °FClear.7 mph93%30.21 "Hg10 mi
7:30 AM45 °FClear.7 mph93%30.21 "Hg10 mi
7:00 AM45 °FClear.7 mph93%30.21 "Hg10 mi
6:30 AM45 °FClear.7 mph93%30.21 "Hg10 mi
6:00 AM45 °FClear.7 mph93%30.21 "Hg10 mi
5:30 AM45 °FClear.7 mph93%30.21 "Hg10 mi
5:00 AM45 °FClear.7 mph93%30.21 "Hg10 mi
4:00 AM45 °FQuite cool.7 mph93%30.21 "Hg6 mi
Weather by CustomWeather, © 2016

See weather overviewHow to use our weather pages